| time (UTC) | temp F | wind direction | speed MPH | gust MPH | rain 1hr in | rain 24hr in | rain mn in | humidity % | barometer mb |
| 20260507040126 | 40 | 15 | 2.0 | 0.0 | 0.00 | 0.00 | 0.01 | 93 | 1011.0 |
| 20260507034525 | 40 | 15 | 2.0 | 0.0 | 0.00 | 0.00 | 0.01 | 92 | 1010.8 |
| 20260507033039 | 41 | 15 | 3.0 | 0.0 | 0.00 | 0.00 | 0.01 | 92 | 1010.7 |
| 20260507031640 | 41 | 121 | 2.0 | 0.0 | 0.00 | 0.00 | 0.01 | 92 | 1010.7 |
| 20260507030138 | 42 | 125 | 0.0 | 0.0 | 0.00 | 0.00 | 0.01 | 92 | 1010.6 |
| 20260507024649 | 42 | 125 | 2.0 | 0.0 | 0.00 | 0.00 | 0.01 | 92 | 1010.6 |
| 20260507023011 | 43 | 127 | 0.0 | 0.0 | 0.00 | 0.00 | 0.01 | 92 | 1010.6 |
| 20260507021501 | 43 | 127 | 1.0 | 0.0 | 0.00 | 0.00 | 0.01 | 92 | 1010.6 |
| 20260507020027 | 43 | 127 | 2.0 | 0.0 | 0.00 | 0.00 | 0.01 | 92 | 1010.5 |
| 20260507014541 | 43 | 129 | 0.0 | 0.0 | 0.00 | 0.00 | 0.01 | 92 | 1010.6 |
| 20260507013142 | 44 | 129 | 0.0 | 0.0 | 0.00 | 0.00 | 0.01 | 92 | 1010.6 |
| 20260507011639 | 44 | 129 | 0.0 | 0.0 | 0.00 | 0.00 | 0.01 | 92 | 1010.6 |
| 20260507010037 | 44 | 129 | 0.0 | 0.0 | 0.00 | 0.00 | 0.01 | 92 | 1010.7 |
| 20260507004623 | 45 | 129 | 1.0 | 0.0 | 0.00 | 0.00 | 0.01 | 92 | 1010.6 |
| 20260507003012 | 45 | 129 | 3.0 | 0.0 | 0.00 | 0.00 | 0.01 | 92 | 1010.6 |
| 20260507001547 | 45 | 139 | 2.0 | 0.0 | 0.00 | 0.00 | 0.01 | 92 | 1010.6 |
| 20260507000141 | 45 | 51 | 0.0 | 0.0 | 0.00 | 0.00 | 0.01 | 92 | 1010.9 |
| 20260506234537 | 45 | 51 | 0.0 | 0.0 | 0.00 | 0.00 | 0.00 | 92 | 1010.9 |
| 20260506233128 | 45 | 51 | 0.0 | 0.0 | 0.00 | 0.00 | 0.00 | 92 | 1011.0 |
| 20260506231527 | 45 | 51 | 1.0 | 0.0 | 0.00 | 0.00 | 0.00 | 91 | 1011.0 |
| 20260506230053 | 45 | 51 | 2.0 | 0.0 | 0.00 | 0.00 | 0.00 | 91 | 1011.0 |
| 20260506224551 | 45 | 53 | 2.0 | 0.0 | 0.00 | 0.00 | 0.06 | 91 | 1010.9 |
| 20260506223129 | 45 | 49 | 2.0 | 0.0 | 0.00 | 0.00 | 0.06 | 90 | 1011.0 |
| 20260506221646 | 45 | 43 | 3.0 | 0.0 | 0.00 | 0.00 | 0.04 | 90 | 1010.9 |
| 20260506220006 | 45 | 30 | 4.0 | 0.0 | 0.00 | 0.00 | 0.03 | 89 | 1010.9 |
| 20260506214648 | 45 | 27 | 4.0 | 0.0 | 0.00 | 0.00 | 0.02 | 88 | 1010.8 |
| 20260506213102 | 45 | 31 | 4.0 | 0.0 | 0.00 | 0.00 | 0.02 | 87 | 1010.8 |
| 20260506211620 | 45 | 12 | 3.0 | 0.0 | 0.00 | 0.00 | 0.02 | 87 | 1010.7 |
| 20260506210113 | 45 | 20 | 4.0 | 0.0 | 0.00 | 0.00 | 0.02 | 87 | 1010.5 |
| 20260506204549 | 44 | 24 | 5.0 | 0.0 | 0.00 | 0.00 | 0.02 | 86 | 1010.5 |
| 20260506203018 | 44 | 7 | 5.0 | 0.0 | 0.00 | 0.00 | 0.02 | 87 | 1010.4 |
| 20260506201600 | 44 | 13 | 4.0 | 0.0 | 0.00 | 0.00 | 0.02 | 87 | 1010.3 |
| 20260506200052 | 44 | 1 | 5.0 | 0.0 | 0.00 | 0.00 | 0.02 | 87 | 1010.5 |
| 20260506194554 | 44 | 351 | 6.0 | 0.0 | 0.00 | 0.00 | 0.02 | 87 | 1010.4 |
| 20260506193135 | 44 | 3 | 6.0 | 0.0 | 0.00 | 0.00 | 0.02 | 87 | 1010.3 |
| 20260506191613 | 45 | 32 | 7.0 | 0.0 | 0.00 | 0.00 | 0.02 | 87 | 1010.3 |
| 20260506190136 | 45 | 1 | 8.0 | 0.0 | 0.00 | 0.00 | 0.02 | 87 | 1010.2 |
| 20260506184608 | 45 | 342 | 9.0 | 0.0 | 0.00 | 0.00 | 0.02 | 88 | 1010.2 |
| 20260506183105 | 45 | 0 | 8.0 | 0.0 | 0.00 | 0.00 | 0.02 | 88 | 1010.1 |
| 20260506181638 | 45 | 13 | 10.0 | 0.0 | 0.00 | 0.00 | 0.02 | 87 | 1010.0 |
| 20260506180041 | 45 | 4 | 10.0 | 0.0 | 0.00 | 0.00 | 0.02 | 88 | 1009.9 |
| 20260506174610 | 46 | 351 | 10.0 | 0.0 | 0.00 | 0.00 | 0.02 | 89 | 1009.7 |
| 20260506173034 | 46 | 11 | 10.0 | 0.0 | 0.00 | 0.00 | 0.02 | 89 | 1009.6 |
| 20260506171623 | 46 | 16 | 9.0 | 0.0 | 0.00 | 0.00 | 0.02 | 89 | 1009.5 |
| 20260506170137 | 46 | 357 | 10.0 | 0.0 | 0.00 | 0.00 | 0.02 | 88 | 1009.5 |
| 20260506164640 | 46 | 356 | 10.0 | 0.0 | 0.00 | 0.00 | 0.02 | 88 | 1009.5 |
| 20260506163101 | 47 | 11 | 10.0 | 0.0 | 0.00 | 0.00 | 0.02 | 89 | 1009.5 |
| 20260506161600 | 47 | 359 | 9.0 | 0.0 | 0.00 | 0.00 | 0.02 | 89 | 1009.4 |
| 20260506160020 | 46 | 6 | 9.0 | 0.0 | 0.00 | 0.00 | 0.02 | 89 | 1009.5 |
| 20260506154535 | 47 | 344 | 9.0 | 0.0 | 0.00 | 0.00 | 0.02 | 90 | 1009.5 |
| 20260506153145 | 47 | 359 | 10.0 | 0.0 | 0.00 | 0.00 | 0.02 | 90 | 1009.5 |
| 20260506151644 | 47 | 25 | 9.0 | 0.0 | 0.00 | 0.00 | 0.02 | 89 | 1009.5 |
| 20260506150129 | 47 | 359 | 9.0 | 0.0 | 0.00 | 0.00 | 0.02 | 89 | 1009.5 |
| 20260506144531 | 48 | 345 | 8.0 | 0.0 | 0.00 | 0.00 | 0.01 | 87 | 1009.5 |
| 20260506143026 | 49 | 23 | 8.0 | 0.0 | 0.00 | 0.00 | 0.00 | 85 | 1009.5 |
| 20260506141553 | 50 | 20 | 10.0 | 0.0 | 0.00 | 0.00 | 0.00 | 81 | 1009.5 |
| 20260506140005 | 52 | 357 | 10.0 | 0.0 | 0.00 | 0.00 | 0.00 | 75 | 1009.5 |
| 20260506134531 | 53 | 18 | 11.0 | 0.0 | 0.00 | 0.00 | 0.00 | 74 | 1009.6 |
| 20260506133044 | 54 | 30 | 9.0 | 0.0 | 0.00 | 0.00 | 0.00 | 70 | 1009.5 |
| 20260506131643 | 54 | 8 | 11.0 | 0.0 | 0.00 | 0.00 | 0.00 | 69 | 1009.5 |
| 20260506130014 | 56 | 352 | 11.0 | 0.0 | 0.00 | 0.00 | 0.00 | 63 | 1009.4 |
| 20260506124550 | 56 | 359 | 11.0 | 0.0 | 0.00 | 0.00 | 0.00 | 61 | 1009.3 |
| 20260506123131 | 59 | 352 | 9.0 | 0.0 | 0.00 | 0.00 | 0.00 | 56 | 1009.1 |
| 20260506121522 | 57 | 350 | 9.0 | 0.0 | 0.00 | 0.00 | 0.00 | 59 | 1009.0 |
| 20260506120043 | 56 | 338 | 9.0 | 0.0 | 0.00 | 0.00 | 0.00 | 59 | 1009.1 |
| 20260506114532 | 57 | 345 | 11.0 | 0.0 | 0.00 | 0.00 | 0.00 | 58 | 1009.2 |
| 20260506113100 | 55 | 1 | 10.0 | 0.0 | 0.00 | 0.00 | 0.00 | 61 | 1009.3 |
| 20260506111633 | 54 | 3 | 10.0 | 0.0 | 0.00 | 0.00 | 0.00 | 62 | 1009.4 |
| 20260506110133 | 54 | 1 | 11.0 | 0.0 | 0.00 | 0.00 | 0.00 | 63 | 1009.4 |
| 20260506104625 | 54 | 4 | 10.0 | 0.0 | 0.00 | 0.00 | 0.00 | 64 | 1009.3 |
| 20260506103136 | 54 | 30 | 9.0 | 0.0 | 0.00 | 0.00 | 0.00 | 66 | 1009.1 |
| 20260506101538 | 55 | 344 | 12.0 | 0.0 | 0.00 | 0.00 | 0.00 | 63 | 1009.0 |
| 20260506100056 | 53 | 359 | 13.0 | 0.0 | 0.00 | 0.00 | 0.00 | 66 | 1009.0 |
| 20260506094629 | 53 | 0 | 10.0 | 0.0 | 0.00 | 0.00 | 0.00 | 68 | 1009.1 |
| 20260506093132 | 52 | 1 | 10.0 | 0.0 | 0.00 | 0.00 | 0.00 | 69 | 1009.0 |
| 20260506091632 | 51 | 13 | 11.0 | 0.0 | 0.00 | 0.00 | 0.00 | 70 | 1009.0 |
| 20260506090103 | 51 | 1 | 10.0 | 0.0 | 0.00 | 0.00 | 0.00 | 74 | 1009.0 |
| 20260506084627 | 50 | 0 | 9.0 | 0.0 | 0.00 | 0.00 | 0.00 | 78 | 1009.0 |
| 20260506083019 | 49 | 359 | 8.0 | 0.0 | 0.00 | 0.00 | 0.00 | 80 | 1008.9 |
| 20260506081628 | 48 | 349 | 9.0 | 0.0 | 0.00 | 0.00 | 0.00 | 82 | 1008.9 |
| 20260506080130 | 48 | 351 | 11.0 | 0.0 | 0.00 | 0.00 | 0.00 | 82 | 1008.9 |
| 20260506073012 | 46 | 326 | 10.0 | 0.0 | 0.00 | 0.00 | 0.00 | 86 | 1008.9 |
| 20260506071634 | 45 | 338 | 10.0 | 0.0 | 0.00 | 0.00 | 0.00 | 87 | 1008.8 |
| 20260506070131 | 44 | 334 | 8.0 | 0.0 | 0.00 | 0.00 | 0.00 | 88 | 1008.7 |
| 20260506061556 | 43 | 346 | 6.0 | 0.0 | 0.00 | 0.00 | 0.00 | 88 | 1008.4 |
| 20260506050120 | 40 | 330 | 8.0 | 0.0 | 0.00 | 0.00 | 0.00 | 90 | 1008.4 |
| 20260506044623 | 39 | 345 | 8.0 | 0.0 | 0.00 | 0.00 | 0.00 | 90 | 1008.2 |
| 20260506043039 | 39 | 335 | 8.0 | 0.0 | 0.00 | 0.00 | 0.00 | 89 | 1008.3 |
| 20260506041639 | 40 | 333 | 8.0 | 0.0 | 0.00 | 0.00 | 0.00 | 89 | 1008.4 |